Location: Ripley
(48.3812°N, 115.4473°W)
Time: 08:59:52
(UTC+00:00)

EO-88 - Pass Details

Date: 06 July 2022
Orbit: 453 x 461 km, 97.3° (Epoch: 13 August)

Event Time Altitude Azimuth Distance (km) Brightness Sun altitude
Exits shadow 05:10:17 13° 174° (S) 1,468 ? -10.8°
Maximum altitude 05:13:24 70° 258° (WSW) 503 ? -11.1°
Drops below altitude 10° 05:16:53 10° 343° (NNW) 1,632 ? -11.4°
Sets 05:18:57 0° 346° (NNW) 2,511 ? -11.6°
